[Date Prev][Date Next][Thread Prev][Thread Next] - [Date Index][Thread Index][Author Index]

2 Line ISS keps 10-26



ISS
1 25544U 98067A   02299.48752194  .00032182  00000-0  43475-3 0  3044
2 25544  51.6346 113.6206 0014857  74.0001 327.7556 15.57338124224454


----
Via the sarex mailing list at AMSAT.ORG courtesy of AMSAT-NA.
To unsubscribe, send "unsubscribe sarex" to Majordomo@amsat.org



AMSAT Top AMSAT Home